timestamp,wind_dir_avg,wind_spd_avg,wind_spd_max_dir,wind_spd_gust,battery_voltage,lat,long
2022-05-29 00:04:00+00:00,149.0,7.83,149.0,9.46,12.41,47.59359,-54.27349
2022-05-29 00:14:01+00:00,147.0,6.62,149.0,7.45,12.33,47.59359,-54.27349
2022-05-29 00:24:01+00:00,149.0,7.26,146.0,8.52,12.33,47.59359,-54.27349
2022-05-29 00:34:01+00:00,143.0,7.57,143.0,8.75,12.33,47.59359,-54.27349
2022-05-29 00:44:01+00:00,152.0,7.25,142.0,8.56,12.33,47.59359,-54.27349
2022-05-29 00:54:01+00:00,145.0,7.77,141.0,9.0,12.33,47.59359,-54.27349
2022-05-29 01:04:01+00:00,148.0,5.18,131.0,6.71,12.33,47.59359,-54.27349
2022-05-29 01:14:01+00:00,145.0,7.14,144.0,9.15,12.33,47.59359,-54.27349
2022-05-29 01:24:01+00:00,149.0,8.35,146.0,9.81,12.33,47.59359,-54.27349
2022-05-29 01:34:01+00:00,150.0,9.92,152.0,10.85,12.33,47.59359,-54.27349
2022-05-29 01:44:01+00:00,158.0,8.07,150.0,10.38,12.33,47.59359,-54.27349
2022-05-29 01:54:01+00:00,154.0,5.95,140.0,7.67,12.33,47.59359,-54.27349
2022-05-29 02:04:01+00:00,167.0,6.03,146.0,7.54,12.33,47.59359,-54.27349
2022-05-29 02:14:00+00:00,153.0,9.15,148.0,10.63,12.41,47.59359,-54.27349
2022-05-29 02:24:00+00:00,148.0,9.18,166.0,11.63,12.41,47.59359,-54.27349
2022-05-29 02:34:00+00:00,149.0,8.7,144.0,10.37,12.41,47.59359,-54.27349
2022-05-29 02:44:00+00:00,148.0,9.79,148.0,11.73,12.41,47.59359,-54.27349
2022-05-29 02:54:00+00:00,148.0,9.98,152.0,12.18,12.41,47.59359,-54.27349
2022-05-29 03:04:00+00:00,142.0,8.63,142.0,10.13,12.41,47.59359,-54.27349
2022-05-29 03:14:00+00:00,141.0,8.72,142.0,9.84,12.33,47.59359,-54.27349
2022-05-29 03:24:00+00:00,137.0,6.25,130.0,7.69,12.33,47.59359,-54.27349
2022-05-29 03:34:00+00:00,126.0,7.14,132.0,8.04,12.33,47.59359,-54.27349
2022-05-29 03:44:00+00:00,134.0,7.31,136.0,8.48,12.33,47.59359,-54.27349
2022-05-29 03:54:00+00:00,131.0,7.08,130.0,8.2,12.33,47.59359,-54.27349
2022-05-29 04:04:00+00:00,146.0,7.31,138.0,8.94,12.33,47.59359,-54.27349
2022-05-29 04:14:00+00:00,191.0,4.96,219.0,7.27,12.33,47.59359,-54.27349
2022-05-29 04:24:00+00:00,169.0,3.83,129.0,6.45,12.33,47.59359,-54.27349
2022-05-29 04:34:00+00:00,163.0,5.39,137.0,8.27,12.33,47.59359,-54.27349
2022-05-29 04:44:00+00:00,210.0,5.46,227.0,8.25,12.33,47.59359,-54.27349
2022-05-29 04:54:00+00:00,199.0,8.8,215.0,10.82,12.33,47.59359,-54.27349
2022-05-29 05:04:00+00:00,178.0,6.52,177.0,8.04,12.33,47.59359,-54.27349
2022-05-29 05:14:01+00:00,185.0,5.64,223.0,6.65,12.33,47.59359,-54.27349
2022-05-29 05:24:01+00:00,160.0,7.33,144.0,9.96,12.33,47.59359,-54.27349
2022-05-29 05:34:01+00:00,166.0,6.34,137.0,8.86,12.33,47.59359,-54.27349
2022-05-29 05:44:01+00:00,167.0,5.26,135.0,6.94,12.33,47.59359,-54.27349
2022-05-29 05:54:01+00:00,158.0,8.77,150.0,10.58,12.33,47.59359,-54.27349
2022-05-29 06:04:01+00:00,151.0,7.55,146.0,9.37,12.33,47.59359,-54.27349
2022-05-29 06:14:00+00:00,175.0,5.32,141.0,7.66,12.25,47.59359,-54.27349
2022-05-29 06:24:00+00:00,165.0,5.48,137.0,7.54,12.25,47.59359,-54.27349
2022-05-29 06:34:00+00:00,162.0,4.15,132.0,6.02,12.25,47.59359,-54.27349
2022-05-29 06:44:00+00:00,125.0,5.97,123.0,6.68,12.25,47.59359,-54.27349
2022-05-29 06:54:00+00:00,170.0,4.68,138.0,6.31,12.25,47.59359,-54.27349
2022-05-29 07:04:00+00:00,172.0,3.84,174.0,4.34,12.25,47.59359,-54.27349
2022-05-29 07:14:00+00:00,166.0,3.54,158.0,4.02,12.17,47.59359,-54.27349
2022-05-29 07:24:00+00:00,180.0,2.72,180.0,3.26,12.17,47.59359,-54.27349
2022-05-29 07:34:00+00:00,152.0,3.56,131.0,4.55,12.17,47.59359,-54.27349
2022-05-29 07:44:00+00:00,168.0,3.33,153.0,3.8,12.17,47.59359,-54.27349
2022-05-29 07:54:00+00:00,162.0,2.28,168.0,2.71,12.17,47.59359,-54.27349
2022-05-29 08:04:00+00:00,173.0,4.01,176.0,4.41,12.17,47.59359,-54.27349
2022-05-29 08:14:01+00:00,171.0,3.6,169.0,3.78,12.17,47.59359,-54.27349
2022-05-29 08:24:01+00:00,181.0,3.39,178.0,3.57,12.17,47.59359,-54.27349
2022-05-29 08:34:01+00:00,279.0,5.98,282.0,6.17,12.17,47.59359,-54.27349
2022-05-29 08:44:01+00:00,287.0,5.11,285.0,5.56,12.17,47.59359,-54.27349
2022-05-29 08:54:01+00:00,283.0,5.26,283.0,5.38,12.17,47.59359,-54.27349
2022-05-29 09:04:01+00:00,285.0,6.1,283.0,6.95,12.17,47.59359,-54.27349
2022-05-29 09:14:00+00:00,333.0,2.26,293.0,5.23,12.25,47.59359,-54.27349
2022-05-29 09:24:00+00:00,239.0,2.9,230.0,3.49,12.25,47.59359,-54.27349
2022-05-29 09:34:00+00:00,217.0,2.87,219.0,3.15,12.25,47.59359,-54.27349
2022-05-29 09:44:00+00:00,217.0,3.37,218.0,3.63,12.25,47.59359,-54.27349
2022-05-29 09:54:00+00:00,158.0,2.56,116.0,4.34,12.25,47.59359,-54.27349
2022-05-29 10:04:00+00:00,281.0,5.04,285.0,5.23,12.25,47.59359,-54.27349
2022-05-29 10:14:01+00:00,234.0,3.73,226.0,4.91,12.17,47.59359,-54.27349
2022-05-29 10:24:01+00:00,315.0,0.01,233.0,0.0,12.17,47.59359,-54.27349
2022-05-29 10:34:01+00:00,213.0,5.65,213.0,6.74,12.17,47.59359,-54.27349
2022-05-29 10:44:01+00:00,215.0,7.26,218.0,8.03,12.17,47.59359,-54.27349
2022-05-29 10:54:01+00:00,216.0,9.16,213.0,10.72,12.17,47.59359,-54.27349
2022-05-29 11:04:01+00:00,213.0,8.76,215.0,9.77,12.17,47.59359,-54.27349
2022-05-29 11:14:00+00:00,210.0,8.64,212.0,10.02,12.65,47.59359,-54.27349
2022-05-29 11:24:00+00:00,214.0,7.43,216.0,8.11,12.65,47.59359,-54.27349
2022-05-29 11:34:00+00:00,209.0,8.22,207.0,8.93,12.65,47.59359,-54.27349
2022-05-29 11:44:00+00:00,209.0,7.93,217.0,9.19,12.65,47.59359,-54.27349
2022-05-29 11:54:00+00:00,213.0,8.0,213.0,8.92,12.65,47.59359,-54.27349
2022-05-29 12:04:00+00:00,213.0,7.57,213.0,8.16,12.65,47.59359,-54.27349
2022-05-29 12:14:01+00:00,212.0,7.48,213.0,8.36,14.08,47.59359,-54.27349
2022-05-29 12:24:01+00:00,211.0,7.6,210.0,8.45,14.08,47.59359,-54.27349
2022-05-29 12:34:01+00:00,211.0,7.85,222.0,9.34,14.08,47.59359,-54.27349
2022-05-29 12:44:01+00:00,209.0,8.54,219.0,10.09,14.08,47.59359,-54.27349
2022-05-29 12:54:01+00:00,214.0,10.15,215.0,11.07,14.08,47.59359,-54.27349
2022-05-29 13:04:01+00:00,214.0,10.1,215.0,11.09,14.08,47.59359,-54.27349
2022-05-29 13:14:01+00:00,213.0,8.73,218.0,10.1,13.44,47.59359,-54.27349
2022-05-29 13:24:01+00:00,208.0,8.21,212.0,9.27,13.44,47.59359,-54.27349
2022-05-29 13:34:01+00:00,206.0,9.18,208.0,10.19,13.44,47.59359,-54.27349
2022-05-29 13:44:01+00:00,205.0,10.48,208.0,11.32,13.44,47.59359,-54.27349
2022-05-29 13:54:01+00:00,207.0,9.37,216.0,10.9,13.44,47.59359,-54.27349
2022-05-29 14:04:01+00:00,211.0,8.9,218.0,10.23,13.44,47.59359,-54.27349
2022-05-29 14:14:00+00:00,209.0,9.15,209.0,10.21,13.68,47.59359,-54.27349
2022-05-29 14:24:00+00:00,207.0,9.06,205.0,9.82,13.68,47.59359,-54.27349
2022-05-29 14:34:00+00:00,205.0,9.54,210.0,10.61,13.68,47.59359,-54.27349
2022-05-29 14:44:00+00:00,205.0,9.26,207.0,10.05,13.68,47.59359,-54.27349
2022-05-29 14:54:00+00:00,206.0,9.55,207.0,10.45,13.68,47.59359,-54.27349
2022-05-29 15:04:00+00:00,205.0,10.35,212.0,11.81,13.68,47.59359,-54.27349
2022-05-29 15:14:00+00:00,205.0,9.65,205.0,10.88,14.32,47.59359,-54.27349
2022-05-29 15:24:00+00:00,205.0,9.6,212.0,10.92,14.32,47.59359,-54.27349
2022-05-29 15:34:00+00:00,205.0,9.49,214.0,11.06,14.32,47.59359,-54.27349
2022-05-29 15:44:00+00:00,204.0,9.69,202.0,12.26,14.32,47.59359,-54.27349
2022-05-29 15:54:00+00:00,207.0,9.47,212.0,10.79,14.32,47.59359,-54.27349
2022-05-29 16:04:00+00:00,208.0,9.45,206.0,10.56,14.32,47.59359,-54.27349
2022-05-29 16:14:01+00:00,208.0,8.31,209.0,9.23,14.0,47.59359,-54.27349
2022-05-29 16:24:01+00:00,210.0,9.03,211.0,10.01,14.0,47.59359,-54.27349
2022-05-29 16:34:01+00:00,209.0,11.17,212.0,12.58,14.0,47.59359,-54.27349
2022-05-29 16:44:01+00:00,209.0,9.87,207.0,10.92,14.0,47.59359,-54.27349
2022-05-29 16:54:01+00:00,204.0,9.22,218.0,10.44,14.0,47.59359,-54.27349
2022-05-29 17:04:01+00:00,208.0,9.98,207.0,10.97,14.0,47.59359,-54.27349
2022-05-29 17:14:00+00:00,211.0,10.24,212.0,11.28,13.84,47.59359,-54.27349
2022-05-29 17:24:00+00:00,209.0,11.04,203.0,11.91,13.84,47.59359,-54.27349
2022-05-29 17:34:00+00:00,205.0,10.8,214.0,12.43,13.84,47.59359,-54.27349
2022-05-29 17:44:00+00:00,209.0,11.24,212.0,12.77,13.84,47.59359,-54.27349
2022-05-29 17:54:00+00:00,211.0,10.62,211.0,12.51,13.84,47.59359,-54.27349
2022-05-29 18:04:00+00:00,210.0,11.36,212.0,12.49,13.84,47.59359,-54.27349
2022-05-29 18:14:01+00:00,211.0,10.71,209.0,12.13,13.68,47.59359,-54.27349
2022-05-29 18:24:01+00:00,210.0,11.03,214.0,12.17,13.68,47.59359,-54.27349
2022-05-29 18:34:01+00:00,213.0,10.69,213.0,12.22,13.68,47.59359,-54.27349
2022-05-29 18:44:01+00:00,212.0,10.98,213.0,12.23,13.68,47.59359,-54.27349
2022-05-29 18:54:01+00:00,210.0,10.13,206.0,11.6,13.68,47.59359,-54.27349
2022-05-29 19:04:01+00:00,210.0,11.43,213.0,12.45,13.68,47.59359,-54.27349
2022-05-29 19:14:00+00:00,211.0,11.68,214.0,13.09,13.44,47.59359,-54.27349
2022-05-29 19:24:00+00:00,210.0,11.58,205.0,12.5,13.44,47.59359,-54.27349
2022-05-29 19:34:00+00:00,207.0,9.72,206.0,11.6,13.44,47.59359,-54.27349
2022-05-29 19:44:00+00:00,207.0,8.57,209.0,10.29,13.44,47.59359,-54.27349
2022-05-29 19:54:00+00:00,210.0,9.16,204.0,10.89,13.44,47.59359,-54.27349
2022-05-29 20:04:00+00:00,213.0,10.35,206.0,13.29,13.44,47.59359,-54.27349
2022-05-29 20:14:01+00:00,212.0,9.89,211.0,11.45,13.53,47.59359,-54.27349
2022-05-29 20:24:01+00:00,208.0,9.61,202.0,11.56,13.53,47.59359,-54.27349
2022-05-29 20:34:01+00:00,206.0,10.96,206.0,12.15,13.53,47.59359,-54.27349
2022-05-29 20:44:01+00:00,207.0,11.23,207.0,12.31,13.53,47.59359,-54.27349
2022-05-29 20:54:01+00:00,210.0,10.23,213.0,11.69,13.53,47.59359,-54.27349
2022-05-29 21:04:01+00:00,210.0,9.67,215.0,10.71,13.53,47.59359,-54.27349
2022-05-29 21:14:00+00:00,208.0,8.69,210.0,9.74,13.53,47.59359,-54.27349
2022-05-29 21:24:00+00:00,209.0,8.16,210.0,8.89,13.53,47.59359,-54.27349
2022-05-29 21:34:00+00:00,212.0,8.9,213.0,9.79,13.53,47.59359,-54.27349
2022-05-29 21:44:00+00:00,212.0,9.1,212.0,10.43,13.53,47.59359,-54.27349
2022-05-29 21:54:00+00:00,212.0,8.73,212.0,9.44,13.53,47.59359,-54.27349
2022-05-29 22:04:00+00:00,213.0,9.11,212.0,9.99,13.53,47.59359,-54.27349
2022-05-29 22:14:01+00:00,213.0,8.65,212.0,9.33,13.29,47.59359,-54.27349
2022-05-29 22:24:01+00:00,213.0,7.67,214.0,8.24,13.29,47.59359,-54.27349
2022-05-29 22:34:01+00:00,213.0,8.31,213.0,9.18,13.29,47.59359,-54.27349
2022-05-29 22:44:01+00:00,216.0,7.64,226.0,8.63,13.29,47.59359,-54.27349
2022-05-29 22:54:01+00:00,214.0,6.91,215.0,7.5,13.29,47.59359,-54.27349
2022-05-29 23:04:01+00:00,215.0,6.33,215.0,6.73,13.29,47.59359,-54.27349
2022-05-29 23:14:00+00:00,225.0,6.37,238.0,8.33,13.13,47.59359,-54.27349
2022-05-29 23:24:00+00:00,215.0,5.07,216.0,5.85,13.13,47.59359,-54.27349
2022-05-29 23:34:00+00:00,218.0,5.56,217.0,6.28,13.13,47.59359,-54.27349
2022-05-29 23:44:00+00:00,217.0,6.3,216.0,6.74,13.13,47.59359,-54.27349
2022-05-29 23:54:00+00:00,222.0,5.66,229.0,6.63,13.13,47.59359,-54.27349
